| time (UTC) | temp F | wind direction | speed MPH | gust MPH | rain 1hr in | rain 24hr in | rain mn in | humidity % | barometer mb |
| 20260901110017 | 91 | 68 | 3.0 | 7.0 | 0.00 | 0.00 | 0.00 | 40 | 1016.9 |
| 20260901105517 | 91 | 248 | 2.0 | 8.0 | 0.00 | 0.00 | 0.00 | 39 | 1016.9 |
| 20260901105037 | 91 | 248 | 3.0 | 7.0 | 0.00 | 0.00 | 0.00 | 41 | 1017.0 |
| 20260901104517 | 90 | 270 | 5.0 | 10.0 | 0.00 | 0.00 | 0.00 | 42 | 1017.1 |
| 20260901104017 | 90 | 293 | 7.0 | 12.0 | 0.00 | 0.00 | 0.00 | 45 | 1017.0 |
| 20260901103538 | 90 | 270 | 8.0 | 12.0 | 0.00 | 0.00 | 0.00 | 47 | 1017.1 |
| 20260901103057 | 89 | 270 | 8.0 | 13.0 | 0.00 | 0.00 | 0.00 | 48 | 1017.1 |
| 20260901102517 | 88 | 270 | 8.0 | 16.0 | 0.00 | 0.00 | 0.00 | 51 | 1017.1 |
| 20260901102057 | 89 | 270 | 7.0 | 15.0 | 0.00 | 0.00 | 0.00 | 53 | 1017.1 |
| 20260901101517 | 89 | 270 | 5.0 | 12.0 | 0.00 | 0.00 | 0.00 | 53 | 1017.3 |
| 20260901101017 | 89 | 293 | 5.0 | 12.0 | 0.00 | 0.00 | 0.00 | 52 | 1017.2 |
| 20260901100517 | 89 | 270 | 4.0 | 13.0 | 0.00 | 0.00 | 0.00 | 54 | 1017.2 |
| 20260901100017 | 88 | 338 | 7.0 | 13.0 | 0.00 | 0.00 | 0.00 | 54 | 1017.2 |
| 20260901095517 | 88 | 315 | 7.0 | 15.0 | 0.00 | 0.00 | 0.00 | 54 | 1017.3 |
| 20260901095017 | 88 | 315 | 6.0 | 13.0 | 0.00 | 0.00 | 0.00 | 54 | 1017.3 |
| 20260901094517 | 88 | 293 | 6.0 | 13.0 | 0.00 | 0.00 | 0.00 | 55 | 1017.5 |
| 20260901094017 | 88 | 293 | 4.0 | 13.0 | 0.00 | 0.00 | 0.00 | 55 | 1017.6 |
| 20260901093517 | 88 | 338 | 5.0 | 13.0 | 0.00 | 0.00 | 0.00 | 57 | 1017.6 |
| 20260901093017 | 87 | 23 | 5.0 | 10.0 | 0.00 | 0.00 | 0.00 | 57 | 1017.6 |
| 20260901092517 | 87 | 23 | 6.0 | 12.0 | 0.00 | 0.00 | 0.00 | 57 | 1017.5 |
| 20260901092017 | 87 | 293 | 7.0 | 16.0 | 0.00 | 0.00 | 0.00 | 56 | 1017.6 |
| 20260901091517 | 87 | 0 | 6.0 | 15.0 | 0.00 | 0.00 | 0.00 | 55 | 1017.5 |
| 20260901091016 | 87 | 315 | 5.0 | 12.0 | 0.00 | 0.00 | 0.00 | 57 | 1017.6 |
| 20260901090517 | 87 | 293 | 6.0 | 14.0 | 0.00 | 0.00 | 0.00 | 57 | 1017.5 |
| 20260901090016 | 87 | 270 | 7.0 | 14.0 | 0.00 | 0.00 | 0.00 | 57 | 1017.5 |
| 20260901085517 | 87 | 293 | 6.0 | 13.0 | 0.00 | 0.00 | 0.00 | 55 | 1017.5 |
| 20260901085017 | 86 | 270 | 8.0 | 17.0 | 0.00 | 0.00 | 0.00 | 57 | 1017.5 |
| 20260901084517 | 87 | 315 | 8.0 | 18.0 | 0.00 | 0.00 | 0.00 | 56 | 1017.5 |
| 20260901084017 | 87 | 293 | 5.0 | 12.0 | 0.00 | 0.00 | 0.00 | 56 | 1017.5 |
| 20260901083517 | 87 | 338 | 5.0 | 14.0 | 0.00 | 0.00 | 0.00 | 55 | 1017.6 |
| 20260901083016 | 86 | 23 | 5.0 | 9.0 | 0.00 | 0.00 | 0.00 | 56 | 1017.4 |
| 20260901082517 | 86 | 315 | 4.0 | 11.0 | 0.00 | 0.00 | 0.00 | 55 | 1017.4 |
| 20260901082017 | 86 | 338 | 5.0 | 13.0 | 0.00 | 0.00 | 0.00 | 56 | 1017.4 |
| 20260901081537 | 86 | 0 | 6.0 | 14.0 | 0.00 | 0.00 | 0.00 | 56 | 1017.4 |
| 20260901081016 | 86 | 0 | 4.0 | 12.0 | 0.00 | 0.00 | 0.00 | 57 | 1017.4 |
| 20260901080516 | 86 | 270 | 5.0 | 11.0 | 0.00 | 0.00 | 0.00 | 57 | 1017.4 |
| 20260901080016 | 86 | 270 | 7.0 | 14.0 | 0.00 | 0.00 | 0.00 | 57 | 1017.4 |
| 20260901075536 | 86 | 293 | 5.0 | 11.0 | 0.00 | 0.00 | 0.00 | 57 | 1017.3 |
| 20260901075017 | 86 | 0 | 6.0 | 13.0 | 0.00 | 0.00 | 0.00 | 57 | 1017.3 |
| 20260901074516 | 86 | 0 | 6.0 | 16.0 | 0.00 | 0.00 | 0.00 | 58 | 1017.3 |
| 20260901074017 | 86 | 315 | 5.0 | 15.0 | 0.00 | 0.00 | 0.00 | 58 | 1017.3 |
| 20260901073537 | 85 | 248 | 4.0 | 13.0 | 0.00 | 0.00 | 0.00 | 60 | 1017.3 |
| 20260901073016 | 85 | 338 | 7.0 | 18.0 | 0.00 | 0.00 | 0.00 | 59 | 1017.3 |
| 20260901072517 | 85 | 203 | 4.0 | 9.0 | 0.00 | 0.00 | 0.00 | 60 | 1017.4 |
| 20260901072016 | 86 | 0 | 6.0 | 17.0 | 0.00 | 0.00 | 0.00 | 60 | 1017.4 |
| 20260901071516 | 85 | 248 | 4.0 | 10.0 | 0.00 | 0.00 | 0.00 | 61 | 1017.3 |
| 20260901071016 | 85 | 293 | 5.0 | 11.0 | 0.00 | 0.00 | 0.00 | 60 | 1017.2 |
| 20260901070536 | 85 | 270 | 4.0 | 12.0 | 0.00 | 0.00 | 0.00 | 60 | 1017.2 |
| 20260901070016 | 85 | 270 | 2.0 | 4.0 | 0.00 | 0.00 | 0.00 | 63 | 1017.2 |
| 20260901065516 | 84 | 248 | 3.0 | 6.0 | 0.00 | 0.00 | 0.00 | 63 | 1017.1 |
| 20260901065036 | 84 | 270 | 3.0 | 10.0 | 0.00 | 0.00 | 0.00 | 63 | 1017.0 |
| 20260901064516 | 84 | 293 | 6.0 | 10.0 | 0.00 | 0.00 | 0.00 | 62 | 1017.1 |
| 20260901064016 | 84 | 338 | 5.0 | 12.0 | 0.00 | 0.00 | 0.00 | 65 | 1017.1 |
| 20260901063516 | 83 | 270 | 4.0 | 10.0 | 0.00 | 0.00 | 0.00 | 65 | 1017.1 |
| 20260901063016 | 83 | 293 | 7.0 | 14.0 | 0.00 | 0.00 | 0.00 | 65 | 1017.1 |
| 20260901062516 | 83 | 293 | 6.0 | 15.0 | 0.00 | 0.00 | 0.00 | 66 | 1017.1 |
| 20260901062016 | 83 | 315 | 4.0 | 10.0 | 0.00 | 0.00 | 0.00 | 65 | 1017.1 |
| 20260901061516 | 83 | 293 | 7.0 | 18.0 | 0.00 | 0.00 | 0.00 | 66 | 1017.3 |
| 20260901061016 | 83 | 315 | 6.0 | 15.0 | 0.00 | 0.00 | 0.00 | 66 | 1017.2 |
| 20260901060516 | 83 | 338 | 7.0 | 18.0 | 0.00 | 0.00 | 0.00 | 67 | 1017.2 |
| 20260901060016 | 83 | 0 | 6.0 | 11.0 | 0.00 | 0.00 | 0.00 | 67 | 1017.3 |
| 20260901055516 | 83 | 338 | 6.0 | 11.0 | 0.00 | 0.00 | 0.00 | 67 | 1017.2 |
| 20260901055018 | 83 | 338 | 3.0 | 9.0 | 0.00 | 0.00 | 0.00 | 67 | 1017.2 |
| 20260901054516 | 82 | 293 | 9.0 | 17.0 | 0.00 | 0.00 | 0.00 | 67 | 1017.1 |
| 20260901054016 | 83 | 0 | 6.0 | 14.0 | 0.00 | 0.00 | 0.00 | 66 | 1017.0 |
| 20260901053517 | 82 | 0 | 6.0 | 13.0 | 0.00 | 0.00 | 0.00 | 68 | 1017.0 |
| 20260901053016 | 82 | 0 | 4.0 | 11.0 | 0.00 | 0.00 | 0.00 | 68 | 1017.0 |
| 20260901052536 | 82 | 23 | 8.0 | 15.0 | 0.00 | 0.00 | 0.00 | 69 | 1016.8 |
| 20260901052016 | 82 | 315 | 5.0 | 11.0 | 0.00 | 0.00 | 0.00 | 69 | 1016.8 |
| 20260901051516 | 81 | 270 | 5.0 | 14.0 | 0.00 | 0.00 | 0.00 | 71 | 1016.7 |
| 20260901051036 | 81 | 315 | 4.0 | 12.0 | 0.00 | 0.00 | 0.00 | 71 | 1016.7 |
| 20260901050516 | 81 | 338 | 5.0 | 12.0 | 0.00 | 0.00 | 0.00 | 71 | 1016.7 |
| 20260901050039 | 81 | 0 | 3.0 | 11.0 | 0.00 | 0.00 | 0.00 | 72 | 1016.6 |
| 20260901045516 | 81 | 338 | 5.0 | 11.0 | 0.00 | 0.00 | 0.00 | 72 | 1016.5 |
| 20260901045016 | 81 | 315 | 5.0 | 12.0 | 0.00 | 0.00 | 0.00 | 71 | 1016.5 |
| 20260901044556 | 81 | 293 | 6.0 | 11.0 | 0.00 | 0.00 | 0.00 | 72 | 1016.4 |
| 20260901044056 | 81 | 0 | 6.0 | 14.0 | 0.00 | 0.00 | 0.00 | 72 | 1016.3 |
| 20260901043516 | 81 | 338 | 4.0 | 11.0 | 0.00 | 0.00 | 0.00 | 72 | 1016.3 |
| 20260901043016 | 81 | 338 | 6.0 | 15.0 | 0.00 | 0.00 | 0.00 | 72 | 1016.3 |
| 20260901042516 | 81 | 0 | 7.0 | 15.0 | 0.00 | 0.00 | 0.00 | 72 | 1016.1 |
| 20260901042036 | 81 | 293 | 5.0 | 12.0 | 0.00 | 0.00 | 0.00 | 72 | 1016.0 |
| 20260901041516 | 81 | 338 | 6.0 | 15.0 | 0.00 | 0.00 | 0.00 | 72 | 1016.1 |
| 20260901041016 | 81 | 0 | 6.0 | 15.0 | 0.00 | 0.00 | 0.00 | 72 | 1016.2 |
| 20260901040516 | 81 | 0 | 8.0 | 13.0 | 0.00 | 0.00 | 0.00 | 71 | 1016.3 |
| 20260901040016 | 81 | 23 | 4.0 | 11.0 | 0.00 | 0.00 | 0.00 | 71 | 1016.2 |
| 20260901035516 | 81 | 0 | 6.0 | 16.0 | 0.00 | 0.00 | 0.00 | 71 | 1016.3 |
| 20260901035016 | 81 | 338 | 9.0 | 17.0 | 0.00 | 0.00 | 0.00 | 71 | 1016.3 |
| 20260901034516 | 81 | 315 | 8.0 | 16.0 | 0.00 | 0.00 | 0.00 | 71 | 1016.3 |
| 20260901034016 | 81 | 0 | 8.0 | 15.0 | 0.00 | 0.00 | 0.00 | 71 | 1016.2 |
| 20260901033516 | 81 | 23 | 7.0 | 19.0 | 0.00 | 0.00 | 0.00 | 71 | 1016.1 |
| 20260901033017 | 81 | 315 | 7.0 | 18.0 | 0.00 | 0.00 | 0.00 | 71 | 1016.3 |
| 20260901032516 | 81 | 45 | 6.0 | 13.0 | 0.00 | 0.00 | 0.00 | 70 | 1016.3 |
| 20260901032016 | 81 | 23 | 4.0 | 13.0 | 0.00 | 0.00 | 0.00 | 71 | 1016.4 |
| 20260901031516 | 81 | 45 | 2.0 | 10.0 | 0.00 | 0.00 | 0.00 | 71 | 1016.4 |
| 20260901031015 | 81 | 113 | 5.0 | 11.0 | 0.00 | 0.00 | 0.00 | 72 | 1016.4 |
| 20260901030515 | 81 | 68 | 4.0 | 15.0 | 0.00 | 0.00 | 0.00 | 72 | 1016.3 |
| 20260901030015 | 81 | 293 | 3.0 | 8.0 | 0.00 | 0.00 | 0.00 | 72 | 1016.3 |
| 20260901025516 | 81 | 293 | 5.0 | 16.0 | 0.00 | 0.00 | 0.00 | 71 | 1016.3 |
| 20260901025016 | 81 | 225 | 4.0 | 14.0 | 0.00 | 0.00 | 0.00 | 72 | 1016.3 |
| 20260901024515 | 81 | 68 | 3.0 | 12.0 | 0.00 | 0.00 | 0.00 | 72 | 1016.3 |
| 20260901024015 | 81 | 315 | 5.0 | 13.0 | 0.00 | 0.00 | 0.00 | 71 | 1016.2 |
| 20260901023516 | 81 | 338 | 5.0 | 11.0 | 0.00 | 0.00 | 0.00 | 71 | 1016.3 |
| 20260901023016 | 81 | 338 | 4.0 | 12.0 | 0.00 | 0.00 | 0.00 | 71 | 1016.3 |
| 20260901022515 | 81 | 338 | 6.0 | 25.0 | 0.00 | 0.00 | 0.00 | 71 | 1016.5 |
| 20260901022036 | 81 | 68 | 4.0 | 25.0 | 0.00 | 0.00 | 0.00 | 71 | 1016.5 |
| 20260901021516 | 81 | 293 | 5.0 | 12.0 | 0.00 | 0.00 | 0.00 | 70 | 1016.5 |
| 20260901021016 | 81 | 90 | 4.0 | 13.0 | 0.00 | 0.00 | 0.00 | 71 | 1016.4 |
| 20260901020516 | 81 | 90 | 6.0 | 14.0 | 0.00 | 0.00 | 0.00 | 71 | 1016.4 |
| 20260901020015 | 81 | 68 | 7.0 | 14.0 | 0.00 | 0.00 | 0.00 | 70 | 1016.5 |
| 20260901015516 | 81 | 293 | 5.0 | 12.0 | 0.00 | 0.00 | 0.00 | 70 | 1016.6 |
| 20260901015015 | 81 | 68 | 6.0 | 13.0 | 0.00 | 0.00 | 0.00 | 69 | 1016.6 |
| 20260901014515 | 82 | 68 | 4.0 | 11.0 | 0.00 | 0.00 | 0.00 | 68 | 1016.6 |
| 20260901014015 | 82 | 113 | 3.0 | 9.0 | 0.00 | 0.00 | 0.00 | 68 | 1016.7 |
| 20260901013516 | 82 | 68 | 3.0 | 11.0 | 0.00 | 0.00 | 0.00 | 66 | 1016.7 |
| 20260901013015 | 82 | 90 | 3.0 | 9.0 | 0.00 | 0.00 | 0.00 | 65 | 1016.7 |
| 20260901012515 | 82 | 158 | 5.0 | 14.0 | 0.00 | 0.00 | 0.00 | 69 | 1016.6 |
| 20260901012015 | 82 | 23 | 7.0 | 16.0 | 0.00 | 0.00 | 0.00 | 68 | 1016.5 |
| 20260901011515 | 82 | 68 | 4.0 | 12.0 | 0.00 | 0.00 | 0.00 | 66 | 1016.4 |
| 20260901011015 | 82 | 23 | 8.0 | 15.0 | 0.00 | 0.00 | 0.00 | 65 | 1016.3 |
| 20260901010515 | 82 | 90 | 5.0 | 18.0 | 0.00 | 0.00 | 0.00 | 66 | 1016.3 |
| 20260901005516 | 82 | 0 | 8.0 | 17.0 | 0.00 | 0.00 | 0.00 | 64 | 1016.1 |
| 20260901005035 | 82 | 23 | 8.0 | 18.0 | 0.00 | 0.00 | 0.00 | 63 | 1015.9 |
| 20260901004515 | 82 | 315 | 12.0 | 24.0 | 0.00 | 0.00 | 0.00 | 64 | 1016.0 |
| 20260901004016 | 82 | 0 | 9.0 | 19.0 | 0.00 | 0.00 | 0.00 | 66 | 1015.9 |
| 20260901003515 | 81 | 338 | 8.0 | 18.0 | 0.00 | 0.00 | 0.00 | 70 | 1016.0 |
| 20260901003015 | 81 | 315 | 5.0 | 12.0 | 0.00 | 0.00 | 0.00 | 71 | 1016.1 |
| 20260901002516 | 81 | 315 | 6.0 | 16.0 | 0.00 | 0.00 | 0.00 | 70 | 1016.1 |
| 20260901002017 | 81 | 338 | 5.0 | 19.0 | 0.00 | 0.00 | 0.00 | 70 | 1016.0 |
| 20260901001537 | 81 | 0 | 6.0 | 19.0 | 0.00 | 0.00 | 0.00 | 70 | 1016.0 |
| 20260901001019 | 81 | 293 | 4.0 | 10.0 | 0.00 | 0.00 | 0.00 | 70 | 1016.1 |
| 20260901000517 | 81 | 270 | 3.0 | 6.0 | 0.00 | 0.00 | 0.00 | 70 | 1016.0 |
| 20260901000017 | 81 | 270 | 5.0 | 10.0 | 0.00 | 0.00 | 0.00 | 70 | 1016.2 |
| 20260831235517 | 81 | 0 | 7.0 | 14.0 | 0.00 | 0.00 | 0.00 | 70 | 1016.3 |
| 20260831235057 | 81 | 0 | 4.0 | 11.0 | 0.00 | 0.00 | 0.00 | 69 | 1016.3 |
| 20260831234517 | 81 | 23 | 2.0 | 5.0 | 0.00 | 0.00 | 0.00 | 69 | 1016.4 |
| 20260831234017 | 81 | 338 | 4.0 | 10.0 | 0.00 | 0.00 | 0.00 | 69 | 1016.2 |
| 20260831233517 | 81 | 0 | 5.0 | 11.0 | 0.00 | 0.00 | 0.00 | 69 | 1016.2 |
| 20260831233017 | 82 | 338 | 4.0 | 10.0 | 0.00 | 0.00 | 0.00 | 69 | 1016.3 |
| 20260831232517 | 82 | 23 | 2.0 | 6.0 | 0.00 | 0.00 | 0.00 | 69 | 1016.4 |
| 20260831232017 | 82 | 23 | 3.0 | 10.0 | 0.00 | 0.00 | 0.00 | 68 | 1016.4 |
| 20260831231517 | 82 | 315 | 6.0 | 16.0 | 0.00 | 0.00 | 0.00 | 67 | 1016.4 |
| 20260831231017 | 82 | 293 | 4.0 | 10.0 | 0.00 | 0.00 | 0.00 | 67 | 1016.5 |
| 20260831230537 | 82 | 293 | 7.0 | 14.0 | 0.00 | 0.00 | 0.00 | 67 | 1016.6 |
| 20260831230037 | 82 | 293 | 5.0 | 12.0 | 0.00 | 0.00 | 0.00 | 68 | 1016.7 |
| 20260831225517 | 82 | 0 | 3.0 | 11.0 | 0.00 | 0.00 | 0.00 | 69 | 1016.7 |
| 20260831225017 | 82 | 315 | 3.0 | 10.0 | 0.00 | 0.00 | 0.00 | 70 | 1016.8 |
| 20260831224517 | 82 | 0 | 4.0 | 9.0 | 0.00 | 0.00 | 0.00 | 70 | 1016.7 |
| 20260831224017 | 82 | 293 | 3.0 | 8.0 | 0.00 | 0.00 | 0.00 | 69 | 1016.7 |
| 20260831223517 | 82 | 293 | 1.0 | 4.0 | 0.00 | 0.00 | 0.00 | 69 | 1016.8 |
| 20260831223017 | 82 | 0 | 3.0 | 13.0 | 0.00 | 0.00 | 0.00 | 69 | 1016.7 |
| 20260831222517 | 82 | 293 | 3.0 | 8.0 | 0.00 | 0.00 | 0.00 | 69 | 1016.7 |
| 20260831222017 | 82 | 338 | 3.0 | 11.0 | 0.00 | 0.00 | 0.00 | 69 | 1016.7 |
| 20260831221517 | 82 | 0 | 7.0 | 14.0 | 0.00 | 0.00 | 0.00 | 69 | 1016.8 |
| 20260831221037 | 82 | 338 | 4.0 | 11.0 | 0.00 | 0.00 | 0.00 | 70 | 1016.9 |
| 20260831220517 | 82 | 338 | 4.0 | 13.0 | 0.00 | 0.00 | 0.00 | 70 | 1016.9 |
| 20260831220017 | 82 | 23 | 4.0 | 11.0 | 0.00 | 0.00 | 0.00 | 71 | 1016.9 |
| 20260831215517 | 82 | 315 | 4.0 | 9.0 | 0.00 | 0.00 | 0.00 | 71 | 1016.9 |
| 20260831215017 | 82 | 338 | 7.0 | 13.0 | 0.00 | 0.00 | 0.00 | 71 | 1016.9 |
| 20260831214516 | 82 | 338 | 4.0 | 11.0 | 0.00 | 0.00 | 0.00 | 71 | 1016.8 |
| 20260831214017 | 82 | 315 | 5.0 | 13.0 | 0.00 | 0.00 | 0.00 | 71 | 1017.0 |
| 20260831213516 | 82 | 315 | 6.0 | 15.0 | 0.00 | 0.00 | 0.00 | 71 | 1016.9 |
| 20260831213037 | 82 | 338 | 7.0 | 11.0 | 0.00 | 0.00 | 0.00 | 71 | 1016.8 |
| 20260831212516 | 82 | 338 | 5.0 | 12.0 | 0.00 | 0.00 | 0.00 | 70 | 1016.7 |
| 20260831212016 | 82 | 293 | 6.0 | 14.0 | 0.00 | 0.00 | 0.00 | 70 | 1016.9 |
| 20260831211516 | 82 | 225 | 3.0 | 9.0 | 0.00 | 0.00 | 0.00 | 70 | 1016.6 |
| 20260831211017 | 82 | 338 | 6.0 | 13.0 | 0.00 | 0.00 | 0.00 | 70 | 1016.7 |
| 20260831210516 | 82 | 315 | 6.0 | 13.0 | 0.00 | 0.00 | 0.00 | 70 | 1016.8 |
| 20260831210016 | 82 | 270 | 4.0 | 11.0 | 0.00 | 0.00 | 0.00 | 71 | 1016.7 |
| 20260831205517 | 82 | 315 | 7.0 | 13.0 | 0.00 | 0.00 | 0.00 | 71 | 1016.6 |
| 20260831205017 | 82 | 0 | 7.0 | 12.0 | 0.00 | 0.00 | 0.00 | 71 | 1016.5 |
| 20260831204517 | 82 | 315 | 7.0 | 17.0 | 0.00 | 0.00 | 0.00 | 71 | 1016.6 |
| 20260831204017 | 82 | 338 | 6.0 | 11.0 | 0.00 | 0.00 | 0.00 | 71 | 1016.5 |
| 20260831203517 | 82 | 293 | 5.0 | 10.0 | 0.00 | 0.00 | 0.00 | 71 | 1016.5 |
| 20260831203016 | 82 | 338 | 5.0 | 16.0 | 0.00 | 0.00 | 0.00 | 71 | 1016.4 |
| 20260831202517 | 82 | 315 | 5.0 | 11.0 | 0.00 | 0.00 | 0.00 | 71 | 1016.4 |
| 20260831202017 | 82 | 293 | 6.0 | 13.0 | 0.00 | 0.00 | 0.00 | 71 | 1016.3 |
| 20260831201516 | 83 | 270 | 5.0 | 10.0 | 0.00 | 0.00 | 0.00 | 70 | 1016.4 |
| 20260831201018 | 83 | 293 | 5.0 | 13.0 | 0.00 | 0.00 | 0.00 | 70 | 1016.4 |
| 20260831200516 | 82 | 315 | 6.0 | 14.0 | 0.00 | 0.00 | 0.00 | 70 | 1016.4 |
| 20260831200016 | 83 | 315 | 6.0 | 11.0 | 0.00 | 0.00 | 0.00 | 71 | 1016.3 |
| 20260831195516 | 82 | 248 | 3.0 | 10.0 | 0.00 | 0.00 | 0.00 | 71 | 1016.4 |
| 20260831195017 | 82 | 293 | 5.0 | 10.0 | 0.00 | 0.00 | 0.00 | 71 | 1016.2 |
| 20260831194516 | 82 | 315 | 5.0 | 10.0 | 0.00 | 0.00 | 0.00 | 71 | 1016.2 |
| 20260831194016 | 83 | 315 | 5.0 | 11.0 | 0.00 | 0.00 | 0.00 | 70 | 1016.2 |
| 20260831193516 | 83 | 338 | 3.0 | 13.0 | 0.00 | 0.00 | 0.00 | 70 | 1016.1 |
| 20260831193016 | 83 | 293 | 5.0 | 10.0 | 0.00 | 0.00 | 0.00 | 69 | 1016.0 |
| 20260831192516 | 83 | 293 | 6.0 | 12.0 | 0.00 | 0.00 | 0.00 | 70 | 1016.1 |
| 20260831192017 | 83 | 338 | 6.0 | 12.0 | 0.00 | 0.00 | 0.00 | 70 | 1016.1 |
| 20260831191536 | 83 | 293 | 4.0 | 10.0 | 0.00 | 0.00 | 0.00 | 70 | 1016.1 |
| 20260831191016 | 83 | 315 | 4.0 | 10.0 | 0.00 | 0.00 | 0.00 | 70 | 1016.2 |
| 20260831190516 | 83 | 338 | 5.0 | 12.0 | 0.00 | 0.00 | 0.00 | 70 | 1016.0 |
| 20260831190016 | 83 | 315 | 4.0 | 10.0 | 0.00 | 0.00 | 0.00 | 70 | 1016.1 |
| 20260831185516 | 83 | 315 | 5.0 | 11.0 | 0.00 | 0.00 | 0.00 | 70 | 1016.1 |
| 20260831185016 | 83 | 0 | 5.0 | 14.0 | 0.00 | 0.00 | 0.00 | 69 | 1016.2 |
| 20260831184516 | 83 | 293 | 4.0 | 9.0 | 0.00 | 0.00 | 0.00 | 68 | 1016.1 |
| 20260831184016 | 83 | 338 | 4.0 | 9.0 | 0.00 | 0.00 | 0.00 | 69 | 1016.1 |
| 20260831183516 | 83 | 315 | 4.0 | 9.0 | 0.00 | 0.00 | 0.00 | 70 | 1016.0 |
| 20260831183016 | 83 | 315 | 3.0 | 7.0 | 0.00 | 0.00 | 0.00 | 70 | 1016.1 |
| 20260831182536 | 83 | 338 | 4.0 | 14.0 | 0.00 | 0.00 | 0.00 | 70 | 1015.9 |
| 20260831182017 | 83 | 293 | 4.0 | 9.0 | 0.00 | 0.00 | 0.00 | 69 | 1015.8 |
| 20260831181536 | 83 | 338 | 5.0 | 10.0 | 0.00 | 0.00 | 0.00 | 69 | 1015.9 |
| 20260831181016 | 83 | 248 | 4.0 | 15.0 | 0.00 | 0.00 | 0.00 | 69 | 1015.8 |
| 20260831180536 | 83 | 315 | 4.0 | 11.0 | 0.00 | 0.00 | 0.00 | 69 | 1015.8 |
| 20260831180036 | 83 | 338 | 5.0 | 11.0 | 0.00 | 0.00 | 0.00 | 69 | 1015.9 |
| 20260831175516 | 83 | 338 | 7.0 | 13.0 | 0.00 | 0.00 | 0.00 | 69 | 1015.9 |
| 20260831175016 | 84 | 315 | 4.0 | 10.0 | 0.00 | 0.00 | 0.00 | 68 | 1015.9 |
| 20260831174516 | 84 | 0 | 7.0 | 12.0 | 0.00 | 0.00 | 0.00 | 68 | 1015.9 |
| 20260831174016 | 84 | 338 | 6.0 | 12.0 | 0.00 | 0.00 | 0.00 | 69 | 1015.9 |
| 20260831173516 | 84 | 0 | 4.0 | 12.0 | 0.00 | 0.00 | 0.00 | 68 | 1015.9 |
| 20260831173016 | 84 | 338 | 5.0 | 11.0 | 0.00 | 0.00 | 0.00 | 67 | 1015.9 |
| 20260831172516 | 84 | 315 | 5.0 | 12.0 | 0.00 | 0.00 | 0.00 | 68 | 1015.8 |
| 20260831172016 | 84 | 0 | 4.0 | 10.0 | 0.00 | 0.00 | 0.00 | 68 | 1015.9 |
| 20260831171516 | 84 | 315 | 5.0 | 13.0 | 0.00 | 0.00 | 0.00 | 68 | 1015.9 |
| 20260831171016 | 84 | 338 | 4.0 | 12.0 | 0.00 | 0.00 | 0.00 | 68 | 1015.9 |
| 20260831170516 | 84 | 0 | 5.0 | 12.0 | 0.00 | 0.00 | 0.00 | 67 | 1015.7 |
| 20260831170056 | 85 | 0 | 3.0 | 9.0 | 0.00 | 0.00 | 0.00 | 66 | 1015.8 |
| 20260831165536 | 85 | 315 | 4.0 | 9.0 | 0.00 | 0.00 | 0.00 | 66 | 1015.9 |
| 20260831165016 | 85 | 315 | 4.0 | 11.0 | 0.00 | 0.00 | 0.00 | 65 | 1015.9 |
| 20260831164516 | 85 | 315 | 3.0 | 11.0 | 0.00 | 0.00 | 0.00 | 64 | 1015.7 |
| 20260831164016 | 85 | 0 | 4.0 | 10.0 | 0.00 | 0.00 | 0.00 | 64 | 1015.7 |
| 20260831163516 | 85 | 270 | 5.0 | 13.0 | 0.00 | 0.00 | 0.00 | 64 | 1015.7 |
| 20260831163016 | 85 | 315 | 6.0 | 12.0 | 0.00 | 0.00 | 0.00 | 65 | 1015.8 |
| 20260831162516 | 85 | 338 | 6.0 | 12.0 | 0.00 | 0.00 | 0.00 | 64 | 1015.9 |
| 20260831162016 | 85 | 338 | 6.0 | 14.0 | 0.00 | 0.00 | 0.00 | 64 | 1016.0 |
| 20260831161516 | 85 | 338 | 7.0 | 15.0 | 0.00 | 0.00 | 0.00 | 63 | 1016.0 |
| 20260831161016 | 86 | 0 | 8.0 | 14.0 | 0.00 | 0.00 | 0.00 | 62 | 1015.9 |
| 20260831160516 | 86 | 315 | 4.0 | 9.0 | 0.00 | 0.00 | 0.00 | 61 | 1015.9 |
| 20260831160016 | 87 | 338 | 5.0 | 12.0 | 0.00 | 0.00 | 0.00 | 59 | 1015.9 |
| 20260831155516 | 87 | 293 | 6.0 | 12.0 | 0.00 | 0.00 | 0.00 | 59 | 1015.7 |
| 20260831155016 | 88 | 270 | 4.0 | 11.0 | 0.00 | 0.00 | 0.00 | 58 | 1015.6 |
| 20260831154536 | 88 | 315 | 4.0 | 14.0 | 0.00 | 0.00 | 0.00 | 58 | 1015.6 |
| 20260831154016 | 88 | 315 | 3.0 | 11.0 | 0.00 | 0.00 | 0.00 | 58 | 1015.5 |
| 20260831153535 | 88 | 315 | 5.0 | 13.0 | 0.00 | 0.00 | 0.00 | 58 | 1015.5 |
| 20260831153015 | 88 | 0 | 4.0 | 12.0 | 0.00 | 0.00 | 0.00 | 58 | 1015.5 |
| 20260831152515 | 88 | 23 | 6.0 | 12.0 | 0.00 | 0.00 | 0.00 | 58 | 1015.3 |
| 20260831152016 | 88 | 23 | 5.0 | 13.0 | 0.00 | 0.00 | 0.00 | 58 | 1015.4 |
| 20260831151515 | 88 | 0 | 7.0 | 16.0 | 0.00 | 0.00 | 0.00 | 58 | 1015.4 |
| 20260831151016 | 88 | 23 | 5.0 | 18.0 | 0.00 | 0.00 | 0.00 | 58 | 1015.4 |
| 20260831150516 | 88 | 338 | 6.0 | 16.0 | 0.00 | 0.00 | 0.00 | 58 | 1015.4 |
| 20260831150015 | 89 | 0 | 5.0 | 12.0 | 0.00 | 0.00 | 0.00 | 57 | 1015.4 |
| 20260831145515 | 89 | 293 | 6.0 | 13.0 | 0.00 | 0.00 | 0.00 | 57 | 1015.4 |
| 20260831145015 | 89 | 293 | 6.0 | 12.0 | 0.00 | 0.00 | 0.00 | 56 | 1015.5 |
| 20260831144536 | 88 | 338 | 5.0 | 12.0 | 0.00 | 0.00 | 0.00 | 58 | 1015.4 |
| 20260831144015 | 89 | 45 | 5.0 | 13.0 | 0.00 | 0.00 | 0.00 | 57 | 1015.4 |
| 20260831143516 | 88 | 315 | 5.0 | 12.0 | 0.00 | 0.00 | 0.00 | 57 | 1015.4 |
| 20260831143015 | 88 | 338 | 7.0 | 15.0 | 0.00 | 0.00 | 0.00 | 57 | 1015.4 |
| 20260831142515 | 89 | 293 | 6.0 | 12.0 | 0.00 | 0.00 | 0.00 | 57 | 1015.5 |
| 20260831142015 | 89 | 293 | 6.0 | 19.0 | 0.00 | 0.00 | 0.00 | 55 | 1015.6 |
| 20260831141515 | 90 | 23 | 5.0 | 12.0 | 0.00 | 0.00 | 0.00 | 54 | 1015.4 |
| 20260831141015 | 90 | 315 | 5.0 | 10.0 | 0.00 | 0.00 | 0.00 | 55 | 1015.5 |
| 20260831140516 | 90 | 0 | 6.0 | 14.0 | 0.00 | 0.00 | 0.00 | 53 | 1015.4 |
| 20260831140015 | 90 | 338 | 6.0 | 10.0 | 0.00 | 0.00 | 0.00 | 53 | 1015.5 |
| 20260831135515 | 90 | 0 | 7.0 | 14.0 | 0.00 | 0.00 | 0.00 | 52 | 1015.6 |
| 20260831135015 | 90 | 23 | 4.0 | 14.0 | 0.00 | 0.00 | 0.00 | 52 | 1015.6 |
| 20260831134515 | 91 | 270 | 6.0 | 11.0 | 0.00 | 0.00 | 0.00 | 52 | 1015.6 |
| 20260831134015 | 90 | 293 | 4.0 | 10.0 | 0.00 | 0.00 | 0.00 | 52 | 1015.6 |
| 20260831133515 | 90 | 0 | 7.0 | 14.0 | 0.00 | 0.00 | 0.00 | 53 | 1015.5 |
| 20260831133015 | 91 | 23 | 8.0 | 16.0 | 0.00 | 0.00 | 0.00 | 51 | 1015.5 |
| 20260831132517 | 91 | 270 | 5.0 | 14.0 | 0.00 | 0.00 | 0.00 | 51 | 1015.6 |
| 20260831132017 | 91 | 293 | 3.0 | 18.0 | 0.00 | 0.00 | 0.00 | 50 | 1015.5 |
| 20260831131517 | 91 | 0 | 5.0 | 15.0 | 0.00 | 0.00 | 0.00 | 49 | 1015.6 |
| 20260831131017 | 92 | 0 | 5.0 | 11.0 | 0.00 | 0.00 | 0.00 | 47 | 1015.6 |
| 20260831130517 | 92 | 315 | 6.0 | 13.0 | 0.00 | 0.00 | 0.00 | 44 | 1015.6 |
| 20260831130057 | 93 | 293 | 4.0 | 11.0 | 0.00 | 0.00 | 0.00 | 42 | 1015.6 |
| 20260831125517 | 93 | 270 | 3.0 | 11.0 | 0.00 | 0.00 | 0.00 | 41 | 1015.6 |
| 20260831125017 | 93 | 0 | 5.0 | 12.0 | 0.00 | 0.00 | 0.00 | 41 | 1015.6 |
| 20260831124517 | 93 | 23 | 5.0 | 14.0 | 0.00 | 0.00 | 0.00 | 39 | 1015.7 |
| 20260831124017 | 93 | 270 | 3.0 | 8.0 | 0.00 | 0.00 | 0.00 | 39 | 1015.7 |
| 20260831123517 | 93 | 338 | 7.0 | 17.0 | 0.00 | 0.00 | 0.00 | 38 | 1015.6 |
| 20260831123017 | 93 | 315 | 5.0 | 14.0 | 0.00 | 0.00 | 0.00 | 37 | 1015.5 |
| 20260831122538 | 93 | 315 | 5.0 | 13.0 | 0.00 | 0.00 | 0.00 | 37 | 1015.5 |
| 20260831122017 | 93 | 293 | 5.0 | 13.0 | 0.00 | 0.00 | 0.00 | 38 | 1015.5 |
| 20260831121539 | 94 | 90 | 6.0 | 13.0 | 0.00 | 0.00 | 0.00 | 37 | 1015.4 |
| 20260831121017 | 94 | 0 | 6.0 | 15.0 | 0.00 | 0.00 | 0.00 | 37 | 1015.5 |
| 20260831120517 | 93 | 203 | 4.0 | 9.0 | 0.00 | 0.00 | 0.00 | 37 | 1015.5 |
| 20260831120017 | 93 | 315 | 7.0 | 16.0 | 0.00 | 0.00 | 0.00 | 45 | 1015.4 |
| 20260831115517 | 93 | 0 | 6.0 | 15.0 | 0.00 | 0.00 | 0.00 | 39 | 1015.5 |
| 20260831115037 | 94 | 315 | 4.0 | 13.0 | 0.00 | 0.00 | 0.00 | 37 | 1015.6 |
| 20260831114537 | 94 | 0 | 4.0 | 10.0 | 0.00 | 0.00 | 0.00 | 36 | 1015.5 |
| 20260831114017 | 93 | 0 | 5.0 | 13.0 | 0.00 | 0.00 | 0.00 | 37 | 1015.5 |
| 20260831113517 | 94 | 0 | 6.0 | 14.0 | 0.00 | 0.00 | 0.00 | 37 | 1015.5 |
| 20260831113017 | 94 | 203 | 5.0 | 13.0 | 0.00 | 0.00 | 0.00 | 38 | 1015.5 |
| 20260831112517 | 94 | 23 | 5.0 | 13.0 | 0.00 | 0.00 | 0.00 | 41 | 1015.5 |
| 20260831112017 | 94 | 68 | 3.0 | 8.0 | 0.00 | 0.00 | 0.00 | 38 | 1015.5 |
| 20260831111517 | 94 | 338 | 3.0 | 7.0 | 0.00 | 0.00 | 0.00 | 37 | 1015.5 |
| 20260831111017 | 94 | 248 | 4.0 | 13.0 | 0.00 | 0.00 | 0.00 | 37 | 1015.5 |
| 20260831110517 | 94 | 68 | 4.0 | 11.0 | 0.00 | 0.00 | 0.00 | 37 | 1015.6 |